Volver al catálogo

STARLINK-5842

ActivoComunicacionesVLEO
NORAD 56491·PAYLOAD·🇺🇸 United States

Lanzado May 10, 2023 desde Vandenberg Space Force Base

Loading…

Próximos Pases (próximas 24 horas)

TLE

ActualizadoSource: CelesTrak SupGP

Época: Sep 14, 2026, 21:00 UTC

1 56491C 23064AV  26257.87548611 -.00051752  00000+0 -43379-2 0  2578
2 56491  70.0018 347.4517 0003393 270.7046 344.6510 14.98348770    13

Sigue STARLINK-5842 en tiempo real con AllMySat

Download on the App Store